GW5738 Weather Reports


time (UTC)temp
C
wind
direction
speed
KPH
gust
KPH
rain 1hr
cm
rain 24hr
cm
rain mn
cm
humidity
%
barometer
mb
20260505041741 17 197 6.4 8.0 0.00 0.00 0.00 88 1009.3
20260505041551 17 238 4.8 12.9 0.00 0.00 0.00 89 1012.5
20260505041240 17 247 8.0 9.7 0.00 0.00 0.00 89 1009.1
20260505041050 17 194 6.4 12.9 0.00 0.00 0.00 89 1012.5
20260505040741 17 216 4.8 9.7 0.00 0.00 0.00 89 1009.3
20260505040550 17 224 4.8 12.9 0.00 0.00 0.00 89 1012.5
20260505040240 17 231 6.4 14.5 0.00 0.00 0.00 89 1009.1
20260505040051 17 178 1.6 8.0 0.00 0.00 0.00 89 1012.9
20260505035740 17 191 8.0 12.9 0.00 0.00 0.00 88 1009.2
20260505035550 17 203 6.4 11.3 0.00 0.00 0.00 88 1012.5
20260505035241 17 191 8.0 12.9 0.00 0.00 0.00 88 1009.2
20260505035052 17 221 6.4 14.5 0.00 0.00 0.00 88 1012.5
20260505034741 17 202 14.5 16.1 0.00 0.00 0.00 88 1009.2
20260505034550 17 205 8.0 12.9 0.00 0.00 0.00 88 1012.9
20260505034241 17 264 4.8 9.7 0.00 0.00 0.00 88 1009.4
20260505034050 17 221 9.7 14.5 0.00 0.00 0.00 88 1012.9
20260505033740 17 245 9.7 14.5 0.00 0.00 0.00 88 1009.5
20260505033550 17 259 6.4 11.3 0.00 0.00 0.00 88 1012.9
20260505033241 17 245 9.7 14.5 0.00 0.00 0.00 88 1009.4
20260505033051 17 218 4.8 9.7 0.00 0.00 0.00 88 1012.9
20260505032741 17 223 8.0 11.3 0.00 0.00 0.00 88 1009.5
20260505032551 17 181 8.0 11.3 0.00 0.00 0.00 88 1012.9
20260505032241 17 223 8.0 11.3 0.00 0.00 0.00 88 1009.3
20260505032050 17 209 6.4 11.3 0.00 0.00 0.00 88 1012.9
20260505031741 17 228 11.3 14.5 0.00 0.00 0.00 89 1009.5
20260505031551 17 257 8.0 11.3 0.00 0.00 0.00 89 1012.9
20260505031241 17 234 8.0 14.5 0.00 0.00 0.00 89 1009.5
20260505031051 17 235 6.4 17.7 0.00 0.00 0.00 89 1012.9
20260505030741 17 229 11.3 12.9 0.00 0.00 0.00 89 1009.4
20260505030550 17 224 9.7 11.3 0.00 0.00 0.00 89 1012.9
20260505030241 17 244 11.3 12.9 0.00 0.00 0.00 89 1009.7
20260505030050 17 228 9.7 14.5 0.00 0.00 0.00 90 1012.9
20260505025741 17 234 8.0 14.5 0.00 0.00 0.00 90 1009.7
20260505025550 17 220 8.0 14.5 0.00 0.00 0.00 90 1012.9
20260505025240 17 237 8.0 19.3 0.00 0.00 0.00 90 1009.7
20260505025050 17 200 8.0 16.1 0.00 0.00 0.00 90 1012.9
20260505024741 17 223 6.4 12.9 0.00 0.00 0.00 90 1009.8
20260505024551 17 210 12.9 17.7 0.00 0.00 0.00 90 1013.2
20260505024241 17 199 8.0 12.9 0.00 0.00 0.00 89 1009.8
20260505024050 17 223 6.4 14.5 0.00 0.00 0.00 89 1013.2
20260505023740 17 242 11.3 14.5 0.00 0.00 0.00 89 1009.8
20260505023550 17 280 6.4 12.9 0.00 0.00 0.00 89 1012.9
20260505023240 17 242 11.3 14.5 0.00 0.00 0.00 89 1009.7
20260505023050 17 194 8.0 17.7 0.00 0.00 0.00 89 1013.2
20260505022741 17 241 8.0 16.1 0.00 0.00 0.00 90 1009.6
20260505022551 17 216 8.0 14.5 0.00 0.00 0.00 89 1012.9
20260505022240 17 182 6.4 8.0 0.00 0.00 0.00 89 1009.6
20260505022051 17 173 0.0 9.7 0.00 0.00 0.00 89 1013.2
20260505021741 17 234 4.8 8.0 0.00 0.00 0.00 89 1009.7
20260505021550 17 206 6.4 6.4 0.00 0.00 0.00 89 1013.2
20260505021240 17 206 4.8 9.7 0.00 0.00 0.00 89 1009.8
20260505021051 17 22 3.2 14.5 0.00 0.00 0.00 89 1012.9
20260505020740 17 191 6.4 12.9 0.00 0.00 0.00 89 1009.6
20260505020551 17 168 6.4 12.9 0.00 0.00 0.00 89 1013.2
20260505020241 17 194 4.8 12.9 0.00 0.00 0.00 89 1009.8
20260505020051 17 172 4.8 9.7 0.00 0.00 0.00 89 1013.2
20260505015741 17 217 6.4 9.7 0.00 0.00 0.00 89 1009.7
20260505015550 17 195 4.8 9.7 0.00 0.00 0.00 89 1013.2
20260505015241 17 184 6.4 14.5 0.00 0.00 0.00 88 1009.6
20260505015051 17 186 6.4 14.5 0.00 0.00 0.00 88 1013.2
20260505014741 17 172 3.2 14.5 0.00 0.00 0.00 89 1009.7
20260505014551 17 209 6.4 14.5 0.00 0.00 0.00 89 1013.2
20260505014240 17 214 12.9 22.5 0.00 0.00 0.00 89 1009.8
20260505014051 17 173 6.4 14.5 0.00 0.00 0.00 89 1013.2
20260505013741 17 222 16.1 17.7 0.00 0.00 0.00 89 1009.8
20260505013550 17 215 9.7 17.7 0.00 0.00 0.00 89 1013.2
20260505013241 17 212 11.3 16.1 0.00 0.00 0.00 89 1009.8
20260505013051 17 203 11.3 16.1 0.00 0.00 0.00 89 1013.2
20260505012741 17 184 11.3 16.1 0.00 0.00 0.00 89 1009.8
20260505012550 17 205 6.4 19.3 0.00 0.00 0.00 89 1013.2
20260505012241 17 211 8.0 14.5 0.00 0.00 0.00 88 1009.8
20260505012051 17 234 6.4 14.5 0.00 0.00 0.00 88 1013.2
20260505011741 17 204 8.0 17.7 0.00 0.00 0.00 88 1009.9
20260505011551 17 262 4.8 16.1 0.00 0.00 0.00 88 1013.2
20260505011240 17 237 11.3 14.5 0.00 0.00 0.00 88 1009.9
20260505011050 17 203 6.4 12.9 0.00 0.00 0.00 88 1013.5
20260505010741 17 190 9.7 16.1 0.00 0.00 0.00 88 1010.2
20260505010551 17 229 8.0 14.5 0.00 0.00 0.00 88 1013.5
20260505010241 17 202 8.0 16.1 0.00 0.00 0.00 88 1009.9
20260505010051 17 251 8.0 12.9 0.00 0.00 0.00 88 1013.5
20260505005740 17 219 8.0 14.5 0.00 0.00 0.00 87 1010.1
20260505005551 17 211 9.7 16.1 0.00 0.00 0.00 87 1013.5
20260505005241 17 213 8.0 17.7 0.00 0.00 0.00 87 1010.1
20260505005051 17 212 9.7 16.1 0.00 0.00 0.00 87 1013.2
20260505004740 17 207 8.0 17.7 0.00 0.00 0.00 87 1010.1
20260505004550 17 225 11.3 14.5 0.00 0.00 0.00 87 1013.5
20260505004240 17 207 8.0 17.7 0.00 0.00 0.00 87 1010.2
20260505004051 17 227 9.7 12.9 0.00 0.00 0.00 87 1013.5
20260505003741 17 202 8.0 11.3 0.00 0.00 0.00 87 1010.2
20260505003550 17 225 3.2 9.7 0.00 0.00 0.00 87 1013.5
20260505003240 17 219 12.9 14.5 0.00 0.00 0.00 86 1010.2
20260505003050 18 232 8.0 11.3 0.00 0.00 0.00 87 1013.5
20260505002741 18 214 6.4 9.7 0.00 0.00 0.00 86 1010.2
20260505002550 18 226 11.3 12.9 0.00 0.00 0.00 86 1013.9
20260505002240 18 186 3.2 9.7 0.00 0.00 0.00 86 1010.4
20260505002050 18 233 6.4 14.5 0.00 0.00 0.00 86 1013.5
20260505001741 18 208 8.0 9.7 0.00 0.00 0.00 86 1010.3
20260505001551 18 235 6.4 14.5 0.00 0.00 0.00 86 1013.9
20260505001240 18 266 8.0 14.5 0.00 0.00 0.00 86 1010.4
20260505001050 18 253 3.2 12.9 0.00 0.00 0.00 86 1013.5
20260505000741 18 272 4.8 14.5 0.00 0.00 0.00 86 1010.6
20260505000550 18 258 4.8 8.0 0.00 0.00 0.00 86 1013.9
20260505000240 18 269 6.4 14.5 0.00 0.00 0.00 87 1010.4
20260505000050 18 266 8.0 11.3 0.00 0.00 0.00 87 1013.9
20260504235741 18 274 14.5 14.5 0.00 0.00 0.00 87 1010.4
20260504235551 18 230 8.0 16.1 0.00 0.00 0.00 86 1013.9
20260504235241 18 274 14.5 16.1 0.00 0.00 0.00 86 1010.4
20260504235050 18 209 8.0 11.3 0.00 0.00 0.00 86 1013.5
20260504234740 18 262 11.3 11.3 0.00 0.00 0.00 86 1010.3
20260504234551 18 265 8.0 14.5 0.00 0.00 0.00 86 1013.9
20260504234241 18 268 11.3 14.5 0.00 0.00 0.00 86 1010.6
20260504234051 18 237 6.4 12.9 0.00 0.00 0.00 86 1013.9
20260504233741 18 258 8.0 16.1 0.00 0.00 0.00 86 1010.4
20260504233550 18 261 4.8 19.3 0.00 0.00 0.00 86 1013.9
20260504233241 18 261 12.9 20.9 0.00 0.00 0.00 86 1010.4
20260504233051 18 261 14.5 20.9 0.00 0.00 0.00 86 1013.5
20260504232741 18 229 9.7 17.7 0.00 0.00 0.00 86 1010.4
20260504232551 18 267 9.7 12.9 0.00 0.00 0.00 86 1013.5
20260504232240 18 260 19.3 20.9 0.00 0.00 0.00 85 1010.6
20260504232051 18 271 11.3 24.1 0.00 0.00 0.00 86 1013.9
20260504231741 18 260 19.3 20.9 0.00 0.00 0.00 85 1010.4
20260504231551 18 259 11.3 19.3 0.00 0.00 0.00 85 1013.9
20260504231241 18 265 11.3 19.3 0.00 0.00 0.00 85 1010.6
20260504231050 18 267 3.2 14.5 0.00 0.00 0.00 85 1013.9
20260504230741 18 278 9.7 14.5 0.00 0.00 0.00 85 1010.5
20260504230551 18 256 17.7 22.5 0.00 0.00 0.00 85 1013.5
20260504230241 18 253 4.8 11.3 0.00 0.00 0.00 84 1010.5
20260504230050 18 260 9.7 12.9 0.00 0.00 0.00 84 1013.9
20260504225740 18 271 8.0 14.5 0.00 0.00 0.00 84 1010.5
20260504225550 18 230 9.7 16.1 0.00 0.00 0.00 84 1013.9
20260504225240 18 233 6.4 16.1 0.00 0.00 0.00 84 1010.4
20260504225050 18 264 6.4 17.7 0.00 0.00 0.00 84 1013.5
20260504224742 18 282 12.9 17.7 0.00 0.00 0.00 84 1010.5
20260504224551 18 268 9.7 16.1 0.00 0.00 0.00 84 1013.9
20260504224241 18 271 12.9 17.7 0.00 0.00 0.00 85 1010.6
20260504224050 18 261 14.5 19.3 0.00 0.00 0.00 85 1013.5
20260504223741 18 253 12.9 17.7 0.00 0.00 0.00 85 1010.3
20260504223550 18 268 12.9 16.1 0.00 0.00 0.00 85 1013.5
20260504223241 18 271 9.7 11.3 0.00 0.00 0.00 85 1010.3
20260504223050 18 260 11.3 19.3 0.00 0.00 0.00 85 1013.5
20260504222742 18 271 8.0 11.3 0.00 0.00 0.00 85 1010.3
20260504222551 18 228 8.0 14.5 0.00 0.00 0.00 85 1013.9
20260504222240 18 256 6.4 14.5 0.00 0.00 0.00 85 1010.6
20260504222051 18 236 4.8 14.5 0.00 0.00 0.00 85 1013.9
20260504221742 18 255 4.8 14.5 0.00 0.00 0.00 85 1010.5
20260504221550 18 227 4.8 16.1 0.00 0.00 0.00 85 1013.9
20260504221241 18 258 4.8 12.9 0.00 0.00 0.00 85 1010.5
20260504221051 18 163 4.8 14.5 0.00 0.00 0.00 85 1013.5
20260504220741 18 262 14.5 16.1 0.00 0.00 0.00 85 1010.5
20260504220551 18 229 3.2 14.5 0.00 0.00 0.00 85 1013.9
20260504220241 18 262 4.8 16.1 0.00 0.00 0.00 85 1010.3
20260504220050 18 236 3.2 12.9 0.00 0.00 0.00 86 1013.9
20260504215740 18 262 6.4 9.7 0.00 0.00 0.00 86 1010.2
20260504215550 18 266 8.0 12.9 0.00 0.00 0.00 86 1013.9
20260504215240 18 253 6.4 8.0 0.00 0.00 0.00 87 1010.5
20260504215050 18 260 4.8 11.3 0.00 0.00 0.00 87 1013.5
20260504214741 18 276 4.8 11.3 0.00 0.00 0.00 87 1010.3
20260504214550 18 200 6.4 16.1 0.00 0.00 0.00 87 1013.5
20260504214241 18 266 3.2 12.9 0.00 0.00 0.00 87 1010.4
20260504214050 18 205 4.8 12.9 0.00 0.00 0.00 87 1013.5
20260504213740 18 253 9.7 11.3 0.00 0.00 0.00 88 1010.5
20260504213551 18 226 9.7 12.9 0.00 0.00 0.00 88 1013.5
20260504213241 18 218 4.8 12.9 0.00 0.00 0.00 88 1010.3
20260504213050 18 247 3.2 11.3 0.00 0.00 0.00 88 1013.9
20260504212740 18 218 4.8 12.9 0.00 0.00 0.00 88 1010.4
20260504212550 18 252 0.0 12.9 0.00 0.00 0.00 88 1013.9
20260504212242 18 261 8.0 11.3 0.00 0.00 0.00 88 1010.4
20260504212051 18 221 4.8 11.3 0.00 0.00 0.00 88 1014.2
20260504211741 18 230 3.2 11.3 0.00 0.00 0.00 88 1010.5
20260504211550 18 246 4.8 9.7 0.00 0.00 0.00 88 1013.5
20260504211241 18 248 9.7 12.9 0.00 0.00 0.00 88 1010.3
20260504211051 18 197 9.7 17.7 0.00 0.00 0.00 88 1013.9
20260504210740 18 207 4.8 8.0 0.00 0.00 0.00 88 1010.5
20260504210550 18 248 4.8 14.5 0.00 0.00 0.00 88 1013.9
20260504210241 18 238 6.4 14.5 0.00 0.00 0.00 88 1010.5
20260504210050 18 203 12.9 14.5 0.00 0.00 0.00 88 1013.5
20260504205741 18 229 14.5 17.7 0.00 0.00 0.00 88 1010.5
20260504205551 18 240 9.7 16.1 0.00 0.00 0.00 88 1013.5
20260504205241 18 219 12.9 16.1 0.00 0.00 0.00 88 1010.2
20260504205051 18 236 12.9 14.5 0.00 0.00 0.00 88 1013.5
20260504204741 18 233 12.9 16.1 0.00 0.00 0.00 88 1010.3
20260504204551 18 245 11.3 20.9 0.00 0.00 0.00 87 1013.9
20260504204241 18 232 11.3 20.9 0.00 0.00 0.00 88 1010.3
20260504204050 18 232 11.3 20.9 0.00 0.00 0.00 88 1013.5
20260504203741 18 221 14.5 20.9 0.00 0.00 0.00 88 1010.2
20260504203551 18 238 17.7 24.1 0.00 0.00 0.00 88 1013.5
20260504203241 18 223 9.7 20.9 0.00 0.00 0.00 89 1010.4
20260504203050 18 185 16.1 24.1 0.00 0.00 0.00 89 1013.5
20260504202741 18 223 14.5 24.1 0.00 0.00 0.00 89 1010.1
20260504202551 18 229 14.5 22.5 0.00 0.00 0.00 89 1013.5
20260504202241 18 232 14.5 19.3 0.00 0.00 0.00 89 1010.1
20260504202051 18 225 19.3 22.5 0.00 0.00 0.00 89 1013.5
20260504201741 18 246 16.1 19.3 0.00 0.00 0.00 88 1010.1
20260504201550 18 194 12.9 17.7 0.00 0.00 0.00 88 1013.5
20260504201241 18 217 11.3 22.5 0.00 0.00 0.00 88 1010.0
20260504201051 18 225 19.3 20.9 0.00 0.00 0.00 88 1013.5
20260504200741 18 229 16.1 22.5 0.00 0.00 0.00 88 1010.2
20260504200552 18 195 14.5 22.5 0.00 0.00 0.00 88 1013.5
20260504200241 18 227 9.7 25.7 0.00 0.00 0.00 89 1009.9
20260504200050 18 216 17.7 25.7 0.00 0.00 0.00 88 1013.2
20260504195741 18 191 14.5 20.9 0.00 0.00 0.00 89 1009.8
20260504195551 18 236 11.3 25.7 0.00 0.00 0.00 89 1013.2
20260504195240 18 226 12.9 24.1 0.00 0.00 0.00 89 1010.0
20260504195052 18 213 11.3 24.1 0.00 0.00 0.00 89 1013.2
20260504194740 18 201 11.3 22.5 0.00 0.00 0.00 89 1009.6
20260504194550 18 207 19.3 20.9 0.00 0.00 0.00 89 1013.2
20260504194241 18 214 19.3 22.5 0.00 0.00 0.00 89 1009.8
20260504194051 18 240 14.5 24.1 0.00 0.00 0.00 89 1013.2
20260504193741 18 210 14.5 20.9 0.00 0.00 0.00 90 1009.4
20260504193551 18 216 9.7 24.1 0.00 0.00 0.00 90 1012.9
20260504193240 18 212 24.1 20.9 0.00 0.00 0.00 90 1009.7
20260504193051 18 212 11.3 22.5 0.00 0.00 0.00 90 1012.9
20260504192741 18 192 14.5 30.6 0.00 0.00 0.00 90 1009.3
20260504192551 18 242 11.3 22.5 0.00 0.00 0.00 90 1012.9
20260504192241 18 235 16.1 20.9 0.00 0.00 0.00 89 1009.1
20260504192050 18 227 6.4 24.1 0.00 0.00 0.00 90 1012.9
20260504191741 18 208 11.3 27.4 0.00 0.00 0.00 89 1009.2
20260504191551 18 216 19.3 27.4 0.00 0.00 0.00 89 1012.9
20260504191240 18 219 17.7 27.4 0.00 0.00 0.00 89 1009.2
20260504191051 18 214 19.3 27.4 0.00 0.00 0.00 89 1012.5
20260504190740 18 249 14.5 25.7 0.00 0.00 0.00 89 1009.1
20260504190552 18 239 12.9 24.1 0.00 0.00 0.00 89 1012.5
20260504190241 18 193 11.3 20.9 0.00 0.00 0.00 88 1009.3
20260504190051 18 222 14.5 33.8 0.00 0.00 0.00 88 1012.5
20260504185741 18 193 11.3 20.9 0.00 0.00 0.00 88 1009.1
20260504185550 18 213 14.5 27.4 0.00 0.00 0.00 88 1012.9
20260504185241 18 276 9.7 19.3 0.00 0.00 0.00 88 1009.3
20260504185051 18 228 14.5 24.1 0.00 0.00 0.00 87 1012.5
20260504184741 18 217 16.1 22.5 0.00 0.00 0.00 87 1009.0
20260504184551 18 241 16.1 20.9 0.00 0.00 0.00 87 1012.5
20260504184241 18 201 14.5 24.1 0.00 0.00 0.00 87 1009.0
20260504184051 18 195 12.9 24.1 0.00 0.00 0.00 87 1012.5
20260504183740 18 263 4.8 22.5 0.00 0.00 0.00 87 1008.9
20260504183550 18 198 16.1 27.4 0.00 0.00 0.00 87 1012.5
20260504183241 18 218 6.4 29.0 0.00 0.00 0.00 87 1009.0
20260504183051 18 200 14.5 20.9 0.00 0.00 0.00 87 1012.2
20260504182740 18 200 12.9 25.7 0.00 0.00 0.00 86 1008.8
20260504182550 18 266 4.8 25.7 0.00 0.00 0.00 86 1012.2
20260504182241 18 215 9.7 27.4 0.00 0.00 0.00 86 1008.9
20260504182051 18 198 12.9 22.5 0.00 0.00 0.00 86 1012.2
20260504181741 19 209 16.1 24.1 0.00 0.00 0.00 86 1008.9
20260504181552 19 197 6.4 30.6 0.00 0.00 0.00 86 1012.2
20260504181241 19 242 11.3 24.1 0.00 0.00 0.00 86 1008.8
20260504181051 19 184 14.5 24.1 0.00 0.00 0.00 86 1012.5
20260504180740 19 201 27.4 30.6 0.00 0.00 0.00 85 1008.9
20260504180552 19 224 14.5 30.6 0.00 0.00 0.00 85 1012.2
20260504180240 19 187 16.1 29.0 0.00 0.00 0.00 85 1008.8
20260504180051 19 222 17.7 22.5 0.00 0.00 0.00 85 1012.2
20260504175741 19 200 8.0 25.7 0.00 0.00 0.00 85 1009.1
20260504175553 19 216 12.9 27.4 0.00 0.00 0.00 85 1012.5
20260504175241 19 214 12.9 25.7 0.00 0.00 0.00 85 1008.7
20260504175051 19 172 16.1 29.0 0.00 0.00 0.00 84 1012.2
20260504174741 19 229 14.5 27.4 0.00 0.00 0.00 84 1008.9
20260504174550 19 208 12.9 17.7 0.00 0.00 0.00 85 1012.2
20260504174241 19 203 16.1 27.4 0.00 0.00 0.00 85 1008.8
20260504174051 19 186 8.0 20.9 0.00 0.00 0.00 85 1012.2
20260504173741 19 205 14.5 29.0 0.00 0.00 0.00 84 1008.9
20260504173550 19 207 20.9 27.4 0.00 0.00 0.00 85 1012.2
20260504173241 19 202 14.5 29.0 0.00 0.00 0.00 84 1008.7
20260504173051 19 225 4.8 25.7 0.00 0.00 0.00 84 1012.5
20260504172740 19 196 16.1 32.2 0.00 0.00 0.00 84 1009.0
20260504172551 19 238 12.9 22.5 0.00 0.00 0.00 84 1012.5
20260504172241 19 196 16.1 30.6 0.00 0.00 0.00 83 1009.1
20260504171740 20 211 17.7 27.4 0.00 0.00 0.00 83 1008.9
20260504171613 20 241 14.5 24.1 0.00 0.00 0.00 83 1012.2
20260504171241 20 211 17.7 22.5 0.00 0.00 0.00 83 1008.9
20260504171050 19 219 14.5 25.7 0.00 0.00 0.00 84 1012.2
20260504170741 19 224 14.5 24.1 0.00 0.00 0.00 83 1008.9
20260504170551 19 233 17.7 32.2 0.00 0.00 0.00 83 1012.2
20260504170240 20 213 19.3 30.6 0.00 0.00 0.00 83 1008.8
20260504160240 20 156 8.0 29.0 0.00 0.00 0.00 84 1009.0
20260504151051 20 177 9.7 16.1 0.00 0.00 0.00 84 1012.9
20260504150741 20 228 17.7 29.0 0.00 0.00 0.00 84 1009.2
20260504150551 20 234 17.7 32.2 0.00 0.00 0.00 83 1012.5
20260504150241 20 238 11.3 24.1 0.00 0.00 0.00 84 1009.2
20260504141241 19 232 20.9 27.4 0.00 0.00 0.00 84 1009.4
20260504141051 19 207 14.5 19.3 0.00 0.00 0.00 84 1012.9
20260504140741 20 225 17.7 24.1 0.00 0.00 0.00 83 1009.6
20260504140551 19 217 12.9 19.3 0.00 0.00 0.00 84 1012.9
20260504140241 19 225 17.7 24.1 0.00 0.00 0.00 83 1009.5
20260504130740 20 294 6.4 16.1 0.00 0.00 0.00 76 1009.7
20260504130551 21 245 8.0 17.7 0.00 0.00 0.00 76 1013.2
20260504130240 20 207 4.8 17.7 0.00 0.00 0.00 73 1009.8
20260504120241 20 232 6.4 14.5 0.00 0.00 0.00 79 1010.1
20260504110551 20 180 4.8 9.7 0.00 0.00 0.00 76 1013.5
20260504110241 20 195 8.0 8.0 0.00 0.00 0.00 77 1010.0
20260504100553 20 175 17.7 17.7 0.00 0.00 0.00 77 1014.2
20260504100240 20 172 8.0 16.1 0.00 0.00 0.00 77 1010.3
20260504081740 20 157 11.3 14.5 0.00 0.00 0.00 77 1010.7
20260504081550 20 168 9.7 9.7 0.00 0.00 0.00 78 1013.9
20260504081241 20 173 11.3 9.7 0.00 0.00 0.00 78 1010.7
20260504081051 20 208 6.4 9.7 0.00 0.00 0.00 78 1014.2
20260504080741 19 212 3.2 8.0 0.00 0.00 0.00 78 1010.6
20260504080551 19 147 1.6 3.2 0.00 0.00 0.00 79 1014.2
20260504080241 19 145 3.2 6.4 0.00 0.00 0.00 80 1010.9
20260504070241 18 164 6.4 8.0 0.00 0.00 0.00 87 1010.7
20260504060241 17 148 3.2 6.4 0.00 0.00 0.00 91 1010.7
20260504050740 17 116 3.2 4.8 0.00 0.00 0.00 91 1010.6
20260504050550 17 158 1.6 4.8 0.00 0.00 0.00 91 1013.5
20260504050241 17 139 1.6 4.8 0.00 0.00 0.00 91 1010.5
20260504045740 17 174 1.6 6.4 0.00 0.00 0.00 90 1010.7
20260504045551 17 127 1.6 3.2 0.00 0.00 0.00 90 1013.9